TimeICT,TemperatureF,Dew PointF,Humidity,Sea Level PressureIn,VisibilityMPH,Wind Direction,Wind SpeedMPH,Gust SpeedMPH,PrecipitationIn,Events,Conditions,WindDirDegrees,DateUTC
12:00 AM,78.8,75.2,89,29.65,6.2,West,10.4,-,N/A,,Scattered Clouds,260,2013-09-18 17:00:00
1:00 AM,78.8,75.2,89,29.59,6.2,WSW,10.4,-,N/A,,Scattered Clouds,240,2013-09-18 18:00:00
7:00 AM,78,72,78,29.67,6,West,6.7,,,,Overcast,270,2013-09-19 00:00:00
7:00 AM,80.6,71.6,74,29.62,6.2,WSW,12.7,-,N/A,,Scattered Clouds,240,2013-09-19 00:00:00
7:30 AM,80.6,71.6,74,29.62,6.2,WSW,13.8,-,N/A,,Scattered Clouds,240,2013-09-19 00:30:00
8:00 AM,82.4,69.8,66,29.62,6.2,WSW,15.0,-,N/A,,Mostly Cloudy,250,2013-09-19 01:00:00
8:30 AM,84.2,69.8,62,29.65,6.2,WSW,15.0,-,N/A,,Mostly Cloudy,240,2013-09-19 01:30:00
9:00 AM,84.2,69.8,62,29.65,6.2,WSW,17.3,-,N/A,,Mostly Cloudy,250,2013-09-19 02:00:00
9:30 AM,84.2,69.8,62,29.65,6.2,West,13.8,-,N/A,,Mostly Cloudy,270,2013-09-19 02:30:00
10:00 AM,86.0,68.0,55,29.62,6.2,West,19.6,-,N/A,,Mostly Cloudy,260,2013-09-19 03:00:00
10:30 AM,86.0,69.8,58,29.62,6.2,West,19.6,-,N/A,,Mostly Cloudy,260,2013-09-19 03:30:00
11:00 AM,86.0,69.8,58,29.62,6.2,West,16.1,-,N/A,,Mostly Cloudy,260,2013-09-19 04:00:00
11:30 AM,86.0,71.6,62,29.62,6.2,WSW,15.0,-,N/A,,Mostly Cloudy,250,2013-09-19 04:30:00
12:00 PM,87.8,71.6,58,29.59,6.2,WSW,19.6,-,N/A,,Mostly Cloudy,250,2013-09-19 05:00:00
12:30 PM,89.6,69.8,52,29.59,6.2,West,20.7,-,N/A,,Scattered Clouds,260,2013-09-19 05:30:00
1:00 PM,87.8,71.6,58,29.59,6.2,WSW,19.6,-,N/A,,Scattered Clouds,250,2013-09-19 06:00:00
1:30 PM,87.8,69.8,55,29.56,6.2,WSW,18.4,-,N/A,,Scattered Clouds,250,2013-09-19 06:30:00
2:00 PM,87.8,69.8,55,29.56,5.6,West,16.1,29.9,N/A,Thunderstorm,Thunderstorm,260,2013-09-19 07:00:00
2:30 PM,86.0,69.8,58,29.56,5.6,WSW,23.0,-,N/A,Thunderstorm,Thunderstorm,250,2013-09-19 07:30:00
3:00 PM,86.0,71.6,62,29.56,5.6,WSW,20.7,-,N/A,Thunderstorm,Thunderstorm,240,2013-09-19 08:00:00
3:30 PM,84.2,71.6,66,29.56,6.2,WSW,21.9,-,N/A,,Mostly Cloudy,240,2013-09-19 08:30:00
4:00 PM,84.2,71.6,66,29.56,6.2,SW,15.0,26.5,N/A,,Mostly Cloudy,230,2013-09-19 09:00:00
4:30 PM,84.2,71.6,66,29.56,6.2,WSW,17.3,-,N/A,,Mostly Cloudy,240,2013-09-19 09:30:00
5:00 PM,82.4,69.8,66,29.56,6.2,WSW,17.3,-,N/A,,Mostly Cloudy,250,2013-09-19 10:00:00
5:30 PM,80.6,71.6,74,29.56,6.2,WSW,16.1,-,N/A,,Mostly Cloudy,240,2013-09-19 10:30:00
6:00 PM,80.6,71.6,74,29.56,6.2,WSW,12.7,-,N/A,,Mostly Cloudy,240,2013-09-19 11:00:00
6:30 PM,80.6,71.6,74,29.59,6.2,WSW,18.4,-,N/A,,Mostly Cloudy,240,2013-09-19 11:30:00
7:00 PM,82.4,69.8,66,29.59,6.2,WSW,16.1,-,N/A,,Mostly Cloudy,250,2013-09-19 12:00:00
7:30 PM,82.4,69.8,66,29.62,6.2,WSW,16.1,-,N/A,,Mostly Cloudy,240,2013-09-19 12:30:00
8:00 PM,80.6,71.6,74,29.62,6.2,SW,9.2,-,N/A,,Mostly Cloudy,220,2013-09-19 13:00:00
8:30 PM,82.4,71.6,70,29.62,6.2,WSW,12.7,-,N/A,,Mostly Cloudy,250,2013-09-19 13:30:00
9:00 PM,82.4,69.8,66,29.65,6.2,WSW,15.0,-,N/A,,Mostly Cloudy,250,2013-09-19 14:00:00
9:30 PM,82.4,69.8,66,29.65,6.2,SW,13.8,-,N/A,,Mostly Cloudy,230,2013-09-19 14:30:00
10:00 PM,82.4,69.8,66,29.62,6.2,WSW,11.5,-,N/A,,Mostly Cloudy,250,2013-09-19 15:00:00
10:30 PM,82.4,68.0,62,29.62,6.2,West,12.7,-,N/A,,Mostly Cloudy,260,2013-09-19 15:30:00
11:00 PM,82.4,68.0,62,29.62,6.2,WSW,11.5,-,N/A,,Mostly Cloudy,250,2013-09-19 16:00:00
11:30 PM,80.6,68.0,65,29.65,6.2,SW,10.4,-,N/A,,Mostly Cloudy,230,2013-09-19 16:30:00